Time,TemperatureF,DewpointF,PressureIn,WindDirection,WindDirectionDegrees,WindSpeedMPH,WindSpeedGustMPH,Humidity,HourlyPrecipIn,Conditions,Clouds,dailyrainin,SoftwareType,DateUTC
2013-03-05 00:02:00,32.0,19.0,-100.00,ENE,65,13.0,15.0,58,-99.99,,,-99.99,,2013-03-05 08:02:00,
2013-03-05 00:10:00,32.0,19.0,-100.00,ENE,65,13.0,16.0,58,-99.99,,,-99.99,,2013-03-05 08:10:00,
2013-03-05 01:01:00,32.0,19.0,-100.00,ENE,65,13.0,16.0,58,-99.99,,,-99.99,,2013-03-05 09:01:00,
2013-03-05 01:10:00,32.0,19.0,-100.00,ENE,65,12.0,17.0,58,-99.99,,,-99.99,,2013-03-05 09:10:00,
2013-03-05 02:01:00,32.0,19.0,-100.00,ENE,65,12.0,17.0,58,-99.99,,,-99.99,,2013-03-05 10:01:00,
2013-03-05 03:00:00,32.0,18.0,-100.00,NE,50,12.0,14.0,55,-99.99,,,-99.99,,2013-03-05 11:00:00,
2013-03-05 03:01:00,31.0,19.0,-100.00,NE,55,9.0,13.0,60,-99.99,,,-99.99,,2013-03-05 11:01:00,
2013-03-05 03:11:00,31.0,19.0,-100.00,NE,55,9.0,13.0,60,-99.99,,,-99.99,,2013-03-05 11:11:00,
2013-03-05 05:02:00,32.0,18.0,-100.00,NE,55,12.0,17.0,55,-99.99,,,-99.99,,2013-03-05 13:02:00,
2013-03-05 05:11:00,32.0,18.0,-100.00,NE,55,12.0,17.0,55,-99.99,,,-99.99,,2013-03-05 13:11:00,
2013-03-05 06:02:00,32.0,18.0,-100.00,NE,55,13.0,17.0,55,-99.99,,,-99.99,,2013-03-05 14:02:00,
2013-03-05 06:10:00,33.0,18.0,-100.00,ENE,60,12.0,17.0,53,-99.99,,,-99.99,,2013-03-05 14:10:00,
2013-03-05 06:11:00,32.0,18.0,-100.00,NE,55,13.0,17.0,55,-99.99,,,-99.99,,2013-03-05 14:11:00,
2013-03-05 07:01:00,33.0,18.0,-100.00,ENE,60,12.0,17.0,53,-99.99,,,-99.99,,2013-03-05 15:01:00,
2013-03-05 07:10:00,34.0,18.0,-100.00,NE,50,13.0,18.0,51,-99.99,,,-99.99,,2013-03-05 15:10:00,
2013-03-05 08:01:00,34.0,18.0,-100.00,NE,50,13.0,18.0,51,-99.99,,,-99.99,,2013-03-05 16:01:00,
2013-03-05 08:10:00,35.0,18.0,-100.00,NE,45,10.0,17.0,49,-99.99,,,-99.99,,2013-03-05 16:10:00,
2013-03-05 09:01:00,35.0,18.0,-100.00,NE,45,10.0,17.0,49,-99.99,,,-99.99,,2013-03-05 17:01:00,
2013-03-05 09:10:00,35.0,18.0,-100.00,NE,50,10.0,15.0,49,-99.99,,,-99.99,,2013-03-05 17:10:00,
2013-03-05 10:01:00,35.0,18.0,-100.00,NE,50,10.0,15.0,49,-99.99,,,-99.99,,2013-03-05 18:01:00,
2013-03-05 10:10:00,37.0,19.0,-100.00,NE,40,13.0,17.0,47,-99.99,,,-99.99,,2013-03-05 18:10:00,
2013-03-05 11:01:00,37.0,19.0,-100.00,NE,40,13.0,17.0,47,-99.99,,,-99.99,,2013-03-05 19:01:00,
2013-03-05 11:10:00,40.0,18.0,-100.00,NE,50,13.0,17.0,40,-99.99,,,-99.99,,2013-03-05 19:10:00,
2013-03-05 12:01:00,40.0,18.0,-100.00,NE,50,13.0,17.0,40,-99.99,,,-99.99,,2013-03-05 20:01:00,
2013-03-05 13:01:00,40.0,20.0,-100.00,NNE,25,8.0,12.0,44,-99.99,,,-99.99,,2013-03-05 21:01:00,
2013-03-05 13:10:00,41.0,20.0,-100.00,North,5,7.0,10.0,42,-99.99,,,-99.99,,2013-03-05 21:10:00,
2013-03-05 13:11:00,40.0,20.0,-100.00,NNE,25,8.0,12.0,44,-99.99,,,-99.99,,2013-03-05 21:11:00,
2013-03-05 14:01:00,41.0,20.0,-100.00,North,5,7.0,10.0,42,-99.99,,,-99.99,,2013-03-05 22:01:00,
2013-03-05 14:10:00,42.0,20.0,-100.00,North,5,5.0,6.0,41,-99.99,,,-99.99,,2013-03-05 22:10:00,
2013-03-05 15:01:00,42.0,20.0,-100.00,North,5,5.0,6.0,41,-99.99,,,-99.99,,2013-03-05 23:01:00,
2013-03-05 15:10:00,41.0,20.0,-100.00,NNE,15,6.0,10.0,42,-99.99,,,-99.99,,2013-03-05 23:10:00,
2013-03-05 16:01:00,41.0,20.0,-100.00,NNE,15,6.0,10.0,42,-99.99,,,-99.99,,2013-03-06 00:01:00,
2013-03-05 16:10:00,39.0,25.0,-100.00,NNE,25,7.0,12.0,56,-99.99,,,-99.99,,2013-03-06 00:10:00,
2013-03-05 17:01:00,39.0,25.0,-100.00,NNE,25,7.0,12.0,56,-99.99,,,-99.99,,2013-03-06 01:01:00,
2013-03-05 17:10:00,36.0,28.0,-100.00,North,360,10.0,14.0,72,-99.99,,,-99.99,,2013-03-06 01:10:00,
2013-03-05 18:01:00,36.0,28.0,-100.00,North,360,10.0,14.0,72,-99.99,,,-99.99,,2013-03-06 02:01:00,
2013-03-05 18:10:00,36.0,27.0,-100.00,North,360,9.0,15.0,69,-99.99,,,-99.99,,2013-03-06 02:10:00,
2013-03-05 19:01:00,36.0,27.0,-100.00,North,360,9.0,15.0,69,-99.99,,,-99.99,,2013-03-06 03:01:00,
2013-03-05 19:10:00,35.0,27.0,-100.00,North,360,7.0,12.0,72,-99.99,,,-99.99,,2013-03-06 03:10:00,
2013-03-05 20:02:00,35.0,27.0,-100.00,North,360,7.0,12.0,72,-99.99,,,-99.99,,2013-03-06 04:02:00,
2013-03-05 20:10:00,35.0,27.0,-100.00,North,5,7.0,13.0,72,-99.99,,,-99.99,,2013-03-06 04:10:00,
2013-03-05 21:01:00,35.0,27.0,-100.00,North,5,7.0,13.0,72,-99.99,,,-99.99,,2013-03-06 05:01:00,
2013-03-05 21:10:00,35.0,27.0,-100.00,NNE,15,5.0,9.0,72,-99.99,,,-99.99,,2013-03-06 05:10:00,
2013-03-05 22:02:00,35.0,27.0,-100.00,NNE,15,5.0,9.0,72,-99.99,,,-99.99,,2013-03-06 06:02:00,
2013-03-05 23:01:00,33.0,26.0,-100.00,NNE,30,6.0,7.0,75,-99.99,,,-99.99,,2013-03-06 07:01:00,
2013-03-05 23:11:00,33.0,26.0,-100.00,NNE,30,6.0,7.0,75,-99.99,,,-99.99,,2013-03-06 07:11:00,